GEFSCGP_500_meanwind_084.txt.gz
Wind_Speed
6 6 5 5 7 10 10 9 11 12 16 18 19 20 21 21 21 21 21 21 22 22 24 25 27 29 30 32 34 35 37 39 41 41 43 44 43 43 43 44 43 42 40 40
5 5 5 5 8 10 11 11 12 13 16 19 18 19 21 20 19 18 19 20 21 22 24 25 27 29 30 32 34 36 38 39 41 42 43 43 42 41 41 42 42 41 40 40
7 5 5 6 7 8 9 11 13 14 16 17 17 21 22 23 19 15 15 18 19 21 22 23 25 27 29 31 33 35 37 38 39 40 40 40 40 40 40 41 40 39 40 40
6 4 4 5 8 9 11 12 12 13 15 16 19 24 27 23 13 10 13 18 20 22 23 25 27 28 30 32 34 34 36 38 39 40 41 41 41 41 42 42 41 41 41 41
5 3 5 7 10 10 10 11 13 14 16 19 21 26 26 19 14 16 19 22 23 24 25 26 28 29 31 32 34 34 36 38 39 41 42 42 43 43 44 44 43 43 43 42
6 6 5 7 8 9 9 10 12 16 19 21 20 21 19 15 18 20 23 24 25 26 27 29 30 31 33 34 36 37 38 38 40 41 42 43 44 44 44 44 44 43 43 43
6 6 6 4 5 9 8 9 14 18 19 20 14 13 12 11 18 22 25 27 28 29 30 31 33 34 35 37 37 38 40 40 41 42 42 43 43 44 44 44 44 44 44 44
8 5 3 3 6 9 7 8 14 17 18 19 15 11 15 18 20 24 26 29 30 31 33 34 36 37 38 39 39 40 41 41 41 41 41 41 42 42 42 43 44 44 44 45
12 10 7 7 8 8 8 8 10 13 14 15 18 18 18 20 23 26 28 30 32 33 35 36 38 39 40 41 41 41 41 41 41 41 41 41 42 43 44 45 45 46 47 47
10 9 7 8 7 8 8 9 9 9 11 12 19 23 21 24 26 27 29 31 33 35 37 38 39 40 41 41 41 41 41 41 41 41 41 42 43 44 46 46 47 48 50 51
7 6 5 4 5 7 9 10 10 9 10 9 15 23 25 27 28 29 31 33 35 37 38 39 40 41 41 41 40 40 41 41 41 42 43 44 45 46 47 48 49 50 51 52
7 6 8 9 6 4 7 10 10 10 10 9 11 21 25 28 29 31 33 35 37 38 38 39 40 41 41 40 40 40 41 42 43 45 46 46 47 48 49 50 51 51 52 52
7 7 9 14 8 7 9 11 11 10 10 10 11 18 25 28 29 31 33 35 37 38 39 40 40 40 39 39 39 40 42 44 45 46 47 47 48 49 50 50 51 52 52 51
8 7 6 10 11 10 11 12 12 12 11 12 15 20 25 27 29 31 33 35 38 39 40 40 40 40 39 39 40 41 43 45 46 46 47 47 48 49 50 51 52 52 52 51
8 7 6 6 8 8 11 12 12 13 14 15 17 21 26 28 31 32 34 36 38 39 39 40 41 41 40 40 42 43 45 46 46 46 46 47 49 50 51 51 51 50 50 49
8 7 7 6 9 9 12 14 15 16 17 18 20 23 26 29 31 33 35 37 38 39 40 41 42 41 41 42 43 44 45 46 45 46 47 48 49 50 50 49 47 46 45 44
9 8 7 5 9 12 14 15 18 19 20 21 22 24 26 29 32 34 36 38 39 41 41 42 42 42 42 43 44 45 45 45 45 46 47 48 49 48 47 45 43 42 40 39
10 9 8 6 9 14 16 17 19 20 22 22 23 25 27 30 34 37 38 40 42 42 42 43 43 43 43 44 45 45 45 45 45 46 47 48 47 46 43 41 40 38 36 35
11 11 10 8 7 13 19 18 19 21 23 22 23 25 28 30 33 37 40 42 43 43 43 44 44 44 44 45 45 45 45 45 46 47 47 46 45 43 41 39 37 35 33 32
14 13 11 10 10 13 19 19 20 23 24 23 25 27 29 31 33 36 39 41 43 43 44 44 45 45 45 45 45 45 45 46 46 46 46 44 43 42 39 37 35 32 30 29
16 14 13 14 13 17 20 21 22 23 25 26 27 28 30 33 35 38 40 42 44 44 45 45 45 45 45 45 44 44 45 46 46 45 43 42 42 40 37 35 33 30 28 26
16 15 16 16 17 20 21 24 23 23 24 25 27 28 31 33 36 38 41 43 44 45 45 45 46 45 45 45 44 44 44 45 45 44 42 41 40 38 35 33 30 29 27 24
17 18 18 19 21 22 23 24 23 23 24 25 27 29 31 34 37 39 41 43 45 46 46 46 46 45 44 44 44 44 44 44 44 43 41 39 38 36 34 31 29 27 25 23
20 20 19 20 21 22 22 22 22 23 24 26 28 30 32 35 37 40 42 43 45 46 46 46 46 45 44 43 44 44 43 43 43 42 39 37 36 34 32 31 28 27 25 22
20 22 21 21 21 22 22 22 22 24 25 27 28 30 33 35 38 40 42 44 45 46 47 47 46 45 44 43 43 43 42 42 41 40 38 36 35 33 32 30 28 26 24 22
19 21 22 22 22 22 23 23 23 24 26 27 29 31 34 36 39 41 43 45 46 46 47 46 45 44 43 43 42 42 41 40 39 37 36 35 34 33 31 29 27 25 23 22

GEFSCGP_500_meanwind_090.txt.gz
Wind_Speed
1 4 6 6 7 6 6 6 5 5 9 13 15 17 19 20 19 21 22 23 23 21 20 22 22 22 23 24 26 27 29 31 32 32 34 36 37 37 37 37 37 37 37 36
2 4 5 7 6 5 5 5 4 6 10 13 16 19 21 22 22 23 22 20 18 17 19 20 19 21 23 25 27 29 30 32 34 34 36 37 38 38 38 38 39 39 39 39
1 2 5 6 6 6 5 7 6 7 11 14 17 20 21 23 24 24 22 16 14 13 15 16 17 20 22 24 27 28 30 32 34 35 36 37 37 38 40 40 40 40 40 41
6 3 4 5 6 5 6 7 8 9 13 16 19 22 23 24 24 24 17 10 10 9 12 14 17 20 22 25 27 29 31 33 34 36 37 38 38 39 40 41 40 41 41 41
6 4 3 4 5 6 5 6 7 10 12 14 17 20 20 21 20 15 9 9 9 9 13 15 18 20 23 25 27 29 31 32 34 36 37 38 38 39 39 40 40 40 40 41
7 4 4 3 4 2 3 4 6 9 10 13 14 16 15 15 12 7 6 7 10 12 15 17 20 22 24 25 27 28 30 31 32 34 35 36 37 37 37 38 39 39 39 40
6 4 3 3 4 3 4 5 7 7 8 10 12 13 11 11 9 8 9 11 14 16 19 22 24 25 26 28 29 30 30 31 32 33 33 33 33 34 35 36 37 37 38 39
6 4 3 3 2 2 4 6 7 8 9 10 10 11 12 12 11 11 13 15 18 21 24 25 27 28 29 31 31 32 31 31 31 31 32 33 33 34 35 36 36 37 38 39
6 6 4 5 4 4 4 6 7 8 9 10 10 11 13 14 15 17 18 20 23 25 27 29 30 31 32 32 33 32 32 32 32 32 32 33 34 35 36 36 37 38 39 40
7 6 5 5 7 5 6 7 8 8 9 10 11 13 15 16 18 20 22 24 27 29 30 32 33 33 33 34 34 34 34 34 34 34 35 36 36 37 38 39 39 40 41 41
7 6 5 6 6 5 5 7 8 8 9 11 14 16 17 18 21 23 25 28 29 30 32 34 34 35 35 36 36 35 36 36 37 38 38 39 39 39 40 40 41 41 42 43
6 6 6 4 4 3 4 6 8 10 11 13 16 17 19 20 22 24 27 29 30 32 34 35 36 37 37 36 36 36 37 38 39 39 40 40 40 40 40 41 42 43 43 44
7 6 6 4 4 4 6 8 10 11 13 16 18 19 20 22 23 25 27 29 32 33 35 36 37 38 38 37 37 38 39 40 40 41 41 41 41 41 42 42 43 43 44 44
7 6 6 5 4 5 6 7 9 11 14 17 18 20 21 22 23 25 27 31 33 35 36 38 39 39 39 39 39 40 40 42 42 42 42 41 41 41 42 43 43 44 44 44
5 6 5 5 5 6 8 9 11 13 15 17 19 21 22 23 24 26 29 32 34 35 37 38 39 40 40 40 40 41 42 43 43 42 41 41 41 42 43 42 43 43 42 42
4 4 5 5 6 8 9 11 13 14 16 18 20 22 23 23 25 27 30 32 34 35 37 38 40 40 40 41 41 42 43 43 43 42 41 41 42 42 42 42 42 41 41 40
4 4 4 5 7 9 9 10 11 13 16 18 20 22 23 24 26 28 30 32 34 36 38 39 40 41 41 42 42 43 44 43 43 42 42 42 42 41 41 41 40 39 38 37
3 4 5 6 8 9 8 10 12 14 16 18 20 22 24 25 27 29 31 34 36 38 39 41 41 42 41 42 43 44 44 43 42 42 41 41 41 40 39 39 38 36 36 34
4 5 7 9 9 10 10 12 14 16 17 19 21 23 24 26 28 30 32 35 37 38 40 41 42 42 42 43 43 44 43 43 41 41 40 40 39 38 37 36 35 33 32 32
5 7 9 10 11 11 12 14 16 17 18 20 21 23 25 27 29 31 33 35 37 39 41 42 42 42 42 43 43 43 43 42 41 40 40 39 38 36 35 34 33 31 31 31
8 10 10 11 12 13 14 16 18 20 21 22 22 23 25 27 29 31 33 35 38 40 41 42 42 42 42 42 42 42 42 41 41 41 40 39 38 35 34 33 32 31 30 29
12 14 15 15 16 17 18 18 19 20 21 22 23 24 26 28 30 32 34 36 38 40 41 42 41 42 42 42 42 42 41 41 41 41 40 38 36 34 34 33 33 31 30 29
16 17 18 17 18 18 18 18 19 20 21 22 23 24 26 28 30 32 34 37 39 40 41 41 41 42 42 42 42 41 41 41 41 40 39 37 36 35 34 34 33 31 29 28
17 18 19 19 18 17 17 17 18 20 21 22 23 25 27 29 31 33 35 37 39 40 41 41 41 41 41 42 42 42 41 41 41 39 38 36 35 35 34 34 32 30 28 27
18 19 19 19 18 17 17 17 19 20 21 22 23 25 27 29 31 34 36 38 39 40 40 41 41 41 41 41 42 42 41 41 40 38 37 36 35 35 35 33 32 30 29 28
20 20 20 20 19 19 19 19 20 21 22 23 25 26 28 30 32 34 36 38 39 39 40 41 42 42 41 41 42 42 41 40 39 37 36 35 35 35 35 33 31 30 29 28

GEFSCGP_500_meanwind_096.txt.gz
Wind_Speed
10 9 7 7 7 8 9 9 10 12 12 12 11 13 14 15 16 18 19 20 23 25 26 26 23 23 23 23 24 25 25 26 28 28 30 30 30 30 31 32 33 34 34 34
7 7 7 7 7 7 9 10 10 10 10 10 10 11 13 14 17 18 19 20 21 23 23 21 20 21 21 22 24 25 27 28 29 30 31 32 32 32 33 34 34 34 35 35
7 7 6 7 8 8 9 9 10 10 10 11 12 12 12 14 16 17 17 17 18 18 19 18 17 18 20 22 24 26 28 29 30 31 32 33 33 33 34 34 35 35 36 37
5 5 5 6 7 8 9 9 10 11 11 11 12 12 13 15 15 14 13 14 14 14 15 15 16 18 20 23 25 27 29 30 32 33 34 34 34 35 35 35 35 36 36 36
5 6 5 6 7 8 8 9 10 11 11 11 11 13 13 12 12 11 10 10 10 10 12 14 15 17 20 22 24 26 28 30 31 33 33 34 34 35 35 35 36 36 36 35
5 5 6 8 8 8 8 8 9 10 10 10 10 11 11 10 10 9 8 8 9 10 12 14 16 18 21 22 24 26 28 30 31 32 32 33 34 34 35 35 35 35 36 35
6 6 6 7 7 7 7 7 7 7 8 8 8 8 7 8 7 6 8 8 9 11 13 16 18 20 22 23 25 26 28 29 30 31 32 32 33 33 33 34 35 35 35 36
7 6 6 6 5 5 5 6 7 7 7 6 6 5 6 6 6 7 9 9 11 12 14 17 19 21 23 25 26 28 29 30 31 31 32 33 33 33 34 35 35 35 36 36
7 6 5 5 5 5 5 5 6 6 6 5 5 5 6 7 8 9 10 11 12 14 16 18 21 23 25 26 28 29 30 30 31 32 32 33 34 35 36 36 36 36 36 37
7 7 6 5 5 5 5 5 6 5 4 4 4 5 5 7 9 10 12 13 14 16 19 21 23 25 27 28 29 30 31 31 32 32 33 34 35 36 36 37 37 37 38 38
6 6 6 5 5 5 5 5 5 4 5 4 4 6 7 9 11 12 13 15 17 19 21 23 25 27 28 29 31 32 32 33 34 34 35 36 37 37 37 38 38 38 38 38
6 6 6 6 5 6 6 5 5 5 5 6 7 8 10 11 12 14 15 17 19 21 24 26 28 29 31 32 33 34 34 35 35 36 37 37 38 38 38 39 39 38 38 38
7 6 6 6 6 6 6 6 6 6 7 9 10 11 12 13 15 16 18 19 21 23 26 28 30 31 33 34 35 35 35 36 36 37 38 38 39 39 39 39 38 38 37 37
8 7 7 7 7 7 7 7 7 8 9 11 12 13 14 15 17 18 19 21 23 25 27 29 32 33 34 36 36 36 36 37 37 38 39 39 40 40 39 38 38 38 37 37
9 9 8 8 8 7 7 8 8 9 11 13 14 15 16 17 18 19 21 22 24 27 29 31 33 35 36 37 37 37 37 38 38 39 40 40 40 40 39 39 38 37 37 37
9 9 9 8 8 7 8 8 9 11 12 13 14 15 16 18 19 20 21 23 26 28 30 33 35 36 37 37 37 37 38 39 39 40 40 41 41 40 39 38 37 37 37 36
9 9 9 8 8 8 8 8 9 11 13 14 15 16 17 18 19 20 22 24 27 30 32 34 36 37 37 37 37 38 39 40 40 40 41 41 41 40 38 37 37 37 37 36
9 9 9 9 9 8 8 10 11 12 13 15 16 17 18 19 19 21 23 25 28 31 33 35 36 37 37 38 38 39 40 40 41 40 40 41 40 39 37 36 37 36 35 35
10 10 10 9 9 8 9 11 12 13 14 15 16 17 18 18 20 22 24 26 29 31 34 35 36 37 38 38 39 40 40 41 41 40 40 41 40 38 37 36 36 36 35 35
11 11 11 10 9 8 9 11 13 14 14 15 16 17 18 19 20 22 25 27 29 32 34 35 36 37 38 39 39 40 40 40 40 40 40 41 39 38 36 36 36 36 35 34
10 10 10 10 10 10 11 12 14 14 15 15 16 17 18 20 21 23 25 28 30 32 34 35 36 38 38 39 40 40 40 40 40 40 40 41 39 38 37 36 37 36 35 34
12 11 11 11 11 12 13 14 15 15 16 17 17 18 19 21 22 24 26 29 30 32 34 35 37 38 39 39 39 40 40 40 41 40 40 41 39 38 37 36 36 36 35 34
13 12 12 11 12 13 14 15 16 16 17 18 18 19 20 22 23 25 27 29 31 32 34 35 37 38 39 39 40 39 40 41 41 41 41 41 40 38 37 37 36 35 35 34
14 13 13 13 13 14 15 16 17 18 18 19 19 20 21 22 24 26 27 29 31 33 34 36 37 38 39 39 39 39 40 41 41 41 41 40 39 38 37 37 36 35 35 34
15 16 15 15 15 15 16 17 18 18 19 20 20 21 22 23 24 26 27 29 31 33 35 36 37 38 38 39 39 40 41 42 41 41 41 40 39 38 37 37 36 35 34 34
18 19 18 17 17 17 17 18 18 19 20 20 21 22 22 23 25 27 28 30 32 33 35 36 37 38 39 39 39 40 41 42 41 41 40 40 39 38 37 36 35 34 34 34

GEFSCGP_500_meanwind_102.txt.gz
Wind_Speed
12 11 10 9 8 7 6 5 6 7 6 7 7 7 8 9 11 13 15 16 17 18 19 20 20 19 19 18 19 19 20 20 21 23 24 25 24 24 25 26 26 26 27 27
10 9 9 8 7 6 5 6 7 7 6 6 7 8 8 8 10 11 13 15 16 17 17 18 17 16 17 18 18 18 19 21 22 23 23 23 24 25 26 26 26 27 27 28
8 7 7 7 7 7 5 6 5 6 7 7 8 8 9 9 11 11 13 14 15 15 15 14 14 16 16 16 17 18 20 20 21 22 23 24 25 26 26 26 27 27 28 29
7 6 6 6 6 6 6 6 5 6 6 7 8 10 10 11 12 12 12 12 11 12 12 12 13 14 15 16 18 19 20 21 22 23 24 25 26 26 26 27 27 28 29 29
7 7 6 6 6 7 7 6 6 6 7 7 8 9 12 11 11 10 10 10 10 10 11 12 13 14 16 17 19 21 22 23 23 23 24 25 26 27 27 28 28 29 30 30
7 7 7 7 7 8 7 7 6 7 6 7 8 8 10 10 9 8 9 10 10 11 11 12 13 15 17 19 21 21 22 22 23 24 24 25 26 27 28 28 29 30 31 31
8 8 8 8 8 7 7 6 6 7 7 8 8 7 8 8 8 8 9 10 10 11 12 14 15 17 19 20 21 21 22 23 24 25 26 26 27 28 28 29 30 31 32 33
7 8 8 7 7 7 6 6 4 4 6 8 8 7 7 7 7 8 10 10 11 12 14 15 17 19 20 21 22 22 23 24 25 25 26 27 27 28 29 30 31 31 32 33
7 8 8 8 7 6 6 5 5 4 5 6 7 7 7 7 8 9 10 11 12 14 15 16 18 20 21 21 22 23 23 24 25 25 26 26 27 28 30 30 31 32 32 33
7 8 9 8 7 6 5 5 4 2 2 4 7 7 8 8 9 10 11 12 13 14 16 17 19 20 21 22 22 23 23 24 25 25 26 27 27 29 30 31 31 32 32 33
8 8 9 8 6 6 5 5 4 3 3 2 5 8 8 9 10 10 11 12 14 15 16 18 19 20 21 22 22 23 23 24 24 25 26 27 28 29 30 30 31 31 32 33
7 7 7 8 7 6 6 5 5 5 5 4 5 10 9 10 10 11 12 13 14 15 17 18 19 20 22 22 23 23 23 24 25 26 27 29 30 30 31 31 31 32 32 32
7 6 5 7 9 8 7 7 7 7 6 6 6 11 10 11 11 11 12 13 14 15 17 19 20 21 22 23 23 24 24 25 27 28 29 30 31 31 31 32 33 33 33 32
8 7 6 7 10 10 8 8 8 8 7 8 9 12 11 11 11 12 12 13 14 16 17 19 20 21 22 23 24 24 25 27 28 29 30 31 31 32 32 33 34 33 33 32
9 8 8 9 9 9 9 9 9 9 8 9 10 11 11 11 11 12 13 14 15 16 18 19 21 22 23 24 25 26 27 28 29 29 30 31 32 32 33 34 34 34 33 32
10 9 9 9 9 9 9 9 9 9 9 10 10 11 11 12 12 13 13 14 16 17 19 20 21 23 24 25 25 27 28 29 30 30 31 32 32 33 34 34 35 34 33 33
10 9 9 8 9 9 9 10 10 10 10 10 11 12 12 12 13 13 14 15 16 18 19 21 22 23 24 25 26 28 28 29 30 31 32 32 33 34 35 36 35 35 34 34
10 10 9 8 9 8 10 10 10 10 11 11 12 12 12 12 13 13 14 15 16 18 20 21 22 23 25 26 27 28 29 30 31 32 33 34 35 36 37 36 36 36 35 35
12 11 10 10 9 10 11 10 10 11 11 11 12 12 12 12 13 13 14 15 17 19 20 21 23 24 25 27 28 29 30 30 31 32 33 35 36 36 37 37 37 37 36 35
13 13 12 11 11 10 13 11 11 11 11 12 12 12 12 13 13 14 15 16 18 19 20 22 23 24 26 27 28 29 30 31 32 33 35 35 36 37 37 37 37 36 36 35
14 14 13 12 11 12 14 12 12 11 13 13 13 13 13 13 14 15 16 17 18 20 21 22 23 25 27 28 29 30 30 32 33 34 35 36 37 37 37 37 37 36 36 35
14 14 14 13 12 14 15 14 13 14 14 14 14 14 14 14 15 16 17 18 19 20 21 23 24 26 27 29 30 30 31 32 34 35 36 37 38 38 37 37 37 37 36 35
16 16 15 14 15 16 15 15 15 15 15 15 15 15 15 16 16 17 18 19 20 21 23 24 25 26 28 29 30 31 32 33 35 36 37 38 39 38 38 38 38 37 36 35
17 17 17 16 17 17 17 17 16 16 16 16 16 17 17 17 18 18 20 21 21 22 24 25 26 27 28 29 31 32 33 35 36 37 38 39 39 39 39 38 38 37 36 35
18 18 18 17 17 17 18 18 18 18 18 18 18 18 18 19 19 20 21 22 23 24 25 26 26 28 29 31 32 34 36 37 37 38 39 39 40 39 39 39 38 37 36 35
19 20 19 19 19 19 19 20 20 20 20 20 20 20 20 20 21 22 23 24 25 25 27 27 28 29 31 32 33 35 37 38 39 40 40 40 40 40 39 38 38 37 36 35

GEFSCGP_500_meanwind_108.txt.gz
Wind_Speed
8 9 10 10 9 10 9 8 10 11 13 14 14 9 4 4 5 7 7 9 10 12 15 17 18 20 20 20 20 21 21 22 21 21 22 22 23 23 24 24 25 25 25 26
9 11 10 10 8 9 8 9 9 10 12 12 11 9 4 3 5 6 7 8 9 11 12 14 16 17 17 17 19 20 21 20 20 21 22 23 23 23 23 24 24 25 25 26
7 9 11 10 9 10 10 8 9 10 11 11 10 8 6 5 5 6 7 8 8 10 11 11 12 12 13 14 16 18 19 20 20 20 21 21 22 23 23 23 23 23 24 25
7 9 10 9 9 10 11 9 9 10 12 12 10 9 5 5 4 7 7 7 8 9 9 9 9 10 11 13 15 16 16 17 18 19 20 20 21 22 23 23 23 24 24 24
7 9 11 10 10 10 9 9 9 10 13 14 9 8 7 7 5 7 6 6 8 9 8 8 9 10 11 13 14 15 16 17 17 18 19 20 21 22 22 23 24 24 25 25
7 8 8 9 9 8 8 9 11 10 11 10 7 6 8 9 8 8 7 7 8 9 8 9 10 10 12 14 16 17 17 18 18 19 20 21 22 23 23 24 25 25 25 26
10 10 9 10 10 8 8 10 13 14 10 6 6 6 9 9 9 8 9 9 9 9 9 10 11 12 14 16 17 18 18 19 19 20 20 21 22 23 23 24 25 26 26 27
13 14 10 9 11 11 8 8 11 13 13 7 4 5 8 9 9 9 10 10 10 10 11 12 13 14 16 17 18 18 19 20 20 20 21 22 23 23 24 25 25 26 27 28
12 13 11 10 10 10 8 6 7 10 12 8 4 7 7 10 11 11 10 10 11 11 12 13 14 16 17 18 19 19 20 20 21 21 22 22 23 24 25 25 26 27 28 29
11 12 10 10 10 9 7 5 4 5 8 10 6 6 8 10 13 12 12 12 12 13 13 14 16 17 18 19 19 20 20 21 21 22 22 23 23 24 25 25 26 27 28 29
12 12 11 10 8 8 8 6 5 6 6 9 11 9 11 14 15 15 14 14 13 13 14 15 16 17 18 19 20 20 21 21 21 22 23 24 24 25 25 26 26 28 29 30
13 12 13 12 10 10 8 7 7 8 7 6 11 14 15 15 16 16 15 14 13 14 14 16 17 18 19 20 21 21 21 21 22 22 23 24 25 25 26 27 28 29 30 31
13 13 13 13 13 11 6 5 7 8 6 6 9 15 16 16 16 15 15 15 14 14 15 17 18 19 20 20 21 21 22 22 23 24 25 25 26 27 28 29 30 31 31 32
13 13 12 12 10 7 5 6 8 8 7 8 11 14 17 15 15 15 15 15 14 14 15 17 18 19 19 20 21 21 22 23 24 25 26 27 28 29 30 31 31 32 33 33
13 13 12 11 8 7 7 8 10 10 9 10 12 14 18 16 15 16 16 15 15 15 15 16 17 18 19 20 21 22 22 23 25 25 26 28 29 30 31 32 33 34 34 34
15 14 12 10 9 8 8 10 11 11 11 12 13 16 19 16 16 17 16 15 15 15 16 17 17 18 20 21 21 22 23 24 25 26 28 29 31 32 33 33 34 35 35 35
16 14 12 10 10 11 11 11 11 11 13 13 14 17 18 17 16 16 16 16 15 16 16 17 18 19 20 21 22 22 24 25 26 27 29 30 32 33 34 35 35 36 36 37
17 15 14 12 12 12 10 10 11 12 13 15 16 17 18 17 17 16 16 16 16 16 17 18 18 19 20 21 22 23 24 26 27 29 30 31 33 34 35 36 36 37 37 37
17 15 15 14 14 12 12 13 14 13 13 15 16 17 17 17 17 16 15 16 16 16 18 18 19 20 21 22 23 24 26 27 28 30 31 32 34 35 36 37 37 38 38 38
16 14 14 15 15 15 14 15 15 15 16 16 17 17 16 16 17 17 16 16 17 17 18 19 20 21 21 22 24 25 26 28 29 30 32 33 35 36 37 38 39 39 39 38
16 13 15 16 16 16 17 16 16 16 17 17 18 18 17 17 18 18 18 17 18 18 19 20 21 21 22 23 24 25 27 28 29 30 33 35 36 37 38 39 39 40 39 39
16 15 17 17 17 19 21 19 20 20 18 17 19 20 20 19 18 18 18 18 18 19 20 21 21 22 23 24 25 26 28 29 30 32 33 36 37 38 39 40 41 40 40 39
18 18 21 22 21 20 20 22 22 21 19 19 20 21 20 20 19 19 19 19 20 21 21 22 22 23 24 25 26 28 29 31 32 34 35 36 37 38 40 41 41 40 40 40
18 20 22 24 25 24 20 17 20 21 21 20 21 21 21 21 21 21 20 20 21 22 22 23 24 25 26 27 28 29 30 32 33 35 35 37 38 40 41 42 42 41 40 40
23 22 23 23 25 24 20 21 22 23 22 21 21 21 22 22 22 23 23 22 23 23 24 24 25 26 27 28 29 31 32 33 34 35 36 37 39 41 41 41 42 41 40 40
25 25 26 27 26 25 25 24 23 23 22 22 22 23 23 23 24 25 24 24 24 25 25 26 27 28 29 30 31 33 34 35 35 36 38 39 40 41 42 42 42 41 40 40

GEFSCGP_500_meanwind_114.txt.gz
Wind_Speed
7 5 4 6 8 9 11 13 14 15 15 14 13 11 9 8 7 6 4 4 4 5 6 6 8 8 10 10 11 11 11 12 13 14 14 14 14 14 15 16 17 17 18 19
8 5 4 6 8 9 11 13 13 14 15 15 13 9 8 5 4 5 4 3 3 3 3 3 4 6 8 8 8 10 11 11 12 12 13 13 13 14 15 15 16 16 17 17
7 5 4 6 7 9 10 12 13 14 14 15 14 9 6 4 3 2 1 2 3 3 2 3 3 4 4 5 7 8 10 11 11 11 11 12 13 13 14 14 15 15 15 16
6 5 5 6 7 8 10 11 12 13 14 14 12 10 5 3 1 1 2 2 2 1 1 1 2 3 4 5 6 8 9 10 10 10 10 11 12 13 13 14 14 14 16 17
6 6 6 7 8 8 9 10 11 11 12 10 8 7 3 1 1 1 2 2 2 2 1 0 1 2 3 5 6 8 9 9 9 10 10 11 12 13 13 14 15 15 16 16
7 6 7 8 7 8 10 10 9 9 10 9 8 5 1 2 2 2 2 3 3 2 2 2 2 3 4 5 7 8 9 9 9 10 10 11 12 13 14 14 15 16 16 17
7 7 6 8 8 9 10 10 10 9 9 8 6 1 4 4 4 3 3 4 4 3 4 4 4 4 4 6 7 8 9 9 10 11 11 12 13 14 15 16 16 17 17 18
8 8 8 8 9 9 9 9 9 9 10 8 2 2 4 5 5 4 3 3 4 4 4 4 4 5 6 7 8 9 9 10 11 11 12 13 14 15 16 16 17 18 19 20
9 8 8 8 10 9 8 8 8 9 10 5 2 5 5 4 5 4 3 4 4 4 4 3 4 5 6 7 8 9 10 11 11 12 13 14 15 16 17 18 19 20 20 21
11 9 9 10 11 10 10 10 9 10 8 5 1 1 2 2 4 4 4 3 4 4 3 3 5 6 6 7 8 9 10 12 12 13 15 15 16 18 19 19 20 21 22 23
13 12 11 12 11 12 12 12 12 11 10 8 5 3 2 2 3 4 4 4 3 3 3 4 5 6 7 7 9 10 11 12 13 14 15 16 18 19 19 20 22 23 24 25
14 13 12 13 13 12 13 14 13 12 11 9 8 6 4 4 3 3 4 3 3 2 3 4 5 6 7 8 9 10 11 12 13 14 15 17 18 19 20 22 24 25 26 28
15 14 14 13 13 13 13 13 13 12 11 10 10 8 6 5 4 2 3 3 3 3 3 5 5 7 8 8 9 10 11 12 13 15 16 18 19 20 22 23 25 27 28 30
15 15 15 14 13 13 13 14 14 13 11 11 10 9 7 6 5 3 3 3 4 4 4 5 6 7 8 9 9 10 12 13 14 16 17 19 20 22 23 25 27 28 30 31
18 15 15 14 13 13 13 13 15 14 13 12 10 10 8 7 6 4 4 5 5 5 5 6 7 8 9 9 10 11 12 13 15 17 18 20 22 23 25 26 28 30 31 32
17 17 15 14 14 14 14 14 15 14 14 13 12 10 9 8 6 5 5 6 6 6 7 7 8 9 10 10 11 12 13 14 16 18 20 22 23 24 26 27 29 31 32 33
17 17 17 16 15 15 14 14 15 15 15 13 13 11 10 9 7 6 6 7 7 7 7 8 9 10 10 11 12 13 14 16 18 20 21 23 24 26 28 29 30 31 33 33
17 18 18 17 17 16 12 14 15 16 16 15 14 13 11 9 8 7 7 8 8 8 9 9 10 11 11 12 13 14 16 17 19 21 22 24 26 27 29 30 31 32 33 34
17 18 18 17 18 16 15 16 16 17 18 17 15 13 12 11 9 8 9 9 9 9 10 11 11 12 13 14 15 16 17 19 21 22 24 26 27 29 30 31 32 33 34 35
20 20 20 18 18 18 17 17 18 19 19 18 17 14 13 11 10 10 11 11 11 11 11 12 12 13 14 15 16 18 19 20 22 23 25 27 28 30 31 32 33 34 35 36
21 22 21 19 19 19 18 18 19 20 19 19 18 17 15 14 13 13 13 12 12 12 13 13 14 14 15 17 18 19 20 22 23 25 26 28 30 31 32 33 34 35 36 37
22 22 21 19 19 19 19 19 19 18 19 18 17 17 16 15 15 14 14 13 13 13 14 15 16 17 18 19 20 21 22 23 25 26 28 29 31 32 33 33 34 35 37 38
22 22 21 20 17 17 18 18 18 18 18 18 18 17 16 16 16 16 15 15 15 15 16 16 17 18 19 21 22 23 24 25 26 28 29 31 32 32 33 34 35 37 38 39
20 20 19 19 17 17 17 18 18 17 17 18 18 17 17 17 17 16 16 16 17 17 18 18 19 21 22 23 24 25 26 27 28 30 31 32 33 33 33 35 36 37 39 40
21 21 20 19 16 15 15 16 16 17 17 18 18 18 18 18 18 17 18 18 18 19 20 20 21 22 23 24 25 26 28 29 30 31 33 33 33 34 35 36 37 38 39 40
21 22 21 19 17 17 17 17 16 15 15 16 18 19 19 19 19 19 19 20 20 20 21 22 23 24 25 26 27 28 30 31 32 33 33 34 34 35 36 37 38 39 40 40

GEFSCGP_500_meanwind_120.txt.gz
Wind_Speed
11 9 8 10 10 10 9 9 10 11 12 13 13 14 12 11 10 8 7 7 7 7 7 7 7 8 8 7 7 7 7 7 8 8 8 8 9 10 10 11 11 12 13 14
10 9 10 10 10 10 9 9 10 10 11 12 13 13 12 10 7 6 4 3 5 6 5 5 7 6 5 6 5 5 5 6 7 7 7 7 8 8 8 9 10 11 13 14
10 10 11 10 10 9 9 9 10 11 11 12 13 12 10 8 6 4 2 3 4 3 3 3 4 4 3 3 3 3 3 4 5 5 5 6 7 7 8 9 10 11 12 13
11 11 11 10 9 10 9 9 10 11 11 11 11 11 8 7 4 2 0 2 4 3 3 2 2 2 2 2 1 2 2 3 4 4 5 6 6 7 7 8 9 10 11 12
11 11 11 9 9 10 9 9 10 10 10 10 10 9 7 4 2 0 1 2 3 2 2 2 2 2 2 1 1 0 1 2 3 3 4 4 5 6 6 8 9 10 11 12
12 11 10 10 9 10 10 10 10 9 9 8 8 8 5 4 2 2 3 3 2 2 3 3 3 2 2 2 1 1 1 2 2 3 3 4 5 6 7 8 9 10 11 12
12 11 10 10 10 10 10 11 10 8 8 8 8 7 4 3 2 3 3 4 4 3 4 4 4 3 3 2 1 1 1 1 2 3 3 4 5 6 8 9 10 11 12 13
12 11 11 10 10 10 10 10 10 10 9 8 7 6 3 2 2 3 3 4 5 5 4 4 4 4 4 3 2 1 0 1 2 2 3 4 5 7 8 9 10 12 13 14
13 12 11 10 11 11 10 10 9 9 8 8 6 4 4 3 3 3 4 4 6 5 5 4 5 5 4 4 2 1 0 1 1 2 3 4 6 7 9 10 11 13 14 16
14 13 11 12 12 12 11 10 10 10 9 6 5 5 6 6 5 5 5 6 6 6 6 6 5 5 5 4 3 2 1 1 2 2 3 5 6 8 10 11 12 14 15 17
15 14 12 13 12 13 12 12 11 11 10 9 7 6 8 8 7 7 7 7 8 8 7 7 6 5 5 4 3 3 2 2 2 3 4 5 7 9 11 12 14 16 17 19
17 15 15 15 14 14 14 13 13 13 12 11 10 8 9 9 9 9 8 8 8 9 9 8 7 6 5 5 4 3 3 3 3 4 5 6 8 10 12 14 16 17 19 20
20 18 17 17 16 16 15 15 15 15 15 14 12 9 10 11 10 9 9 9 9 10 10 9 8 7 7 6 5 4 4 4 4 5 6 8 9 11 13 15 17 19 20 22
22 20 19 17 17 17 16 16 16 16 15 14 12 11 12 12 12 11 11 11 11 11 10 10 9 9 8 7 6 6 6 5 5 6 8 9 11 13 15 17 18 20 22 23
22 20 19 19 18 18 17 16 16 16 16 15 13 13 13 12 13 13 12 13 12 12 11 11 11 10 9 8 7 7 7 7 7 8 9 11 13 14 16 18 19 21 23 24
21 19 20 20 20 21 19 17 17 17 16 15 13 12 13 13 13 13 13 13 14 13 13 12 12 11 10 9 9 9 9 9 9 10 11 13 14 16 18 20 21 23 24 25
21 21 21 21 21 22 20 17 18 18 16 15 14 12 13 14 14 14 14 15 15 14 14 14 13 12 11 10 10 11 11 11 11 12 13 15 16 18 20 21 23 24 25 27
22 22 22 21 21 22 17 18 19 18 17 16 15 14 15 14 15 16 16 16 16 15 15 15 14 13 12 12 12 12 13 13 14 15 16 17 19 20 22 23 24 26 27 28
20 21 22 21 22 20 18 19 19 19 18 17 15 16 16 16 16 16 16 16 16 16 17 16 16 15 14 14 14 14 15 15 16 17 18 19 21 22 24 25 26 28 29 30
21 21 22 21 20 19 17 19 20 20 18 17 17 17 17 17 18 17 17 18 17 17 17 17 17 16 16 16 16 16 16 17 18 19 20 22 23 24 25 27 28 29 30 30
21 23 22 20 20 18 17 17 18 19 17 18 19 19 18 18 19 20 20 20 19 18 18 18 18 18 18 18 18 18 18 19 20 21 23 24 25 26 27 29 30 31 31 32
20 20 20 19 20 18 18 18 19 19 19 20 20 20 19 19 20 21 22 21 20 20 19 19 19 19 19 19 20 20 21 21 22 23 24 26 27 28 29 30 31 32 33 33
20 19 19 18 17 17 18 19 19 20 20 21 20 20 20 20 20 22 22 22 21 21 21 20 21 21 21 21 22 22 23 23 24 25 26 28 29 30 31 32 33 34 34 35
19 20 20 19 18 18 18 18 19 19 20 21 21 21 22 22 22 23 23 23 22 21 21 22 22 22 22 23 23 24 24 25 26 27 28 30 31 32 33 33 34 35 36 36
20 20 21 19 18 18 18 18 18 19 19 19 20 21 22 22 22 22 22 22 22 22 22 22 23 23 23 24 24 25 26 27 28 29 30 32 32 33 34 35 36 36 37 38
20 20 20 18 18 18 19 19 19 19 19 20 20 21 22 23 22 23 23 23 22 23 24 24 24 25 25 26 26 27 28 29 29 31 32 33 34 35 35 36 37 38 39 39

GEFSCGP_500_meanwind_126.txt.gz
Wind_Speed
12 11 9 9 9 9 9 10 11 13 14 13 13 13 13 12 10 8 8 8 9 10 10 10 11 10 10 11 11 11 12 11 11 11 10 9 8 8 8 8 8 8 8 8
12 11 11 11 10 9 10 10 11 13 12 12 12 12 11 10 8 8 6 7 8 9 9 10 9 9 9 9 9 9 9 10 10 10 9 7 6 6 6 7 6 6 7 7
12 13 13 11 10 10 10 10 11 12 12 11 11 10 10 10 8 6 5 5 6 8 9 9 8 8 8 8 9 8 8 9 9 8 7 6 5 5 5 5 5 5 5 5
14 14 12 11 11 11 11 11 10 10 11 11 10 10 10 9 7 4 3 3 5 6 7 7 7 7 7 8 8 9 8 8 7 7 6 5 4 4 3 4 3 3 4 5
15 14 13 12 11 11 11 11 10 10 9 9 10 9 9 8 5 3 2 1 3 4 5 6 6 7 8 8 8 8 8 7 6 6 6 5 4 3 3 2 3 3 4 5
17 16 14 13 12 11 11 11 10 9 9 8 9 8 8 6 4 2 1 1 3 3 4 5 5 7 8 7 7 7 7 7 6 6 6 5 5 4 3 2 3 3 4 5
17 16 15 14 13 12 11 10 8 9 8 9 9 8 7 5 3 2 0 1 2 2 3 4 5 6 7 7 7 6 6 6 6 6 6 5 4 4 3 2 2 3 4 5
18 16 16 15 14 13 12 10 8 8 8 9 10 8 6 5 3 2 1 1 1 1 2 4 6 6 6 7 6 6 6 6 6 6 5 4 4 3 2 2 2 3 5 6
19 18 18 17 16 15 13 11 11 9 8 8 8 8 7 5 5 4 3 2 2 2 3 4 6 6 6 6 6 6 6 6 6 6 5 4 4 3 2 2 3 4 6 8
22 20 20 19 18 16 14 13 12 10 8 7 8 9 8 6 5 4 4 4 4 3 3 5 6 6 6 6 6 6 6 6 6 6 5 5 4 4 4 4 4 6 7 9
25 23 21 20 19 17 16 15 13 12 10 8 8 9 10 8 7 6 6 5 4 4 4 6 6 7 7 7 7 7 7 7 7 7 6 6 5 5 5 5 6 7 9 10
25 23 22 22 21 20 18 16 14 12 12 11 9 11 12 10 9 8 7 7 6 6 5 6 6 7 8 8 8 8 8 8 8 8 7 7 7 7 6 7 8 9 10 12
27 26 23 22 21 21 19 17 15 14 14 13 10 12 13 12 11 10 9 9 8 7 7 7 7 7 8 8 8 8 8 9 9 9 9 9 9 9 9 10 10 11 12 13
28 28 24 21 19 20 20 18 17 16 14 13 12 13 15 14 13 11 11 10 10 9 8 8 8 8 8 8 9 9 10 10 11 11 11 11 11 11 11 12 13 14 14 15
29 28 26 25 24 23 21 20 18 17 15 15 14 14 15 15 15 13 12 11 11 10 10 10 10 10 10 11 11 11 12 13 13 13 13 13 13 14 14 14 15 16 17 18
28 27 26 25 25 24 23 21 20 18 16 16 15 15 16 16 15 14 13 12 12 12 12 12 12 12 12 13 13 14 14 15 15 15 15 15 16 16 16 17 17 18 19 20
27 27 27 26 26 26 24 22 20 19 18 17 16 16 18 17 16 15 15 14 14 14 14 14 14 14 14 15 16 16 16 16 17 17 17 17 18 18 18 19 20 20 21 22
27 27 27 26 26 26 22 22 21 20 20 19 17 18 19 19 18 17 16 15 15 15 15 16 16 16 16 17 18 18 18 18 19 19 19 19 20 20 20 21 21 22 22 23
26 26 26 25 25 23 22 22 21 20 20 20 19 20 20 20 19 18 17 17 17 16 16 17 17 18 18 19 19 20 20 20 21 21 21 21 22 22 23 23 23 24 24 25
24 25 26 25 25 23 23 22 21 20 20 20 20 21 21 20 19 20 19 18 18 18 18 18 19 19 19 20 20 21 21 22 22 23 22 22 23 24 24 25 25 26 26 27
24 24 24 24 24 24 24 22 21 20 20 20 20 21 21 21 21 22 21 20 19 20 20 20 20 21 21 21 21 22 22 24 24 24 24 24 25 25 26 26 27 27 28 29
23 24 24 23 23 24 23 21 21 21 21 21 21 21 21 21 22 22 22 22 21 21 21 22 22 22 23 23 23 23 24 25 25 25 25 26 26 27 27 28 28 29 30 30
24 24 23 24 24 24 23 23 22 21 21 22 22 22 22 23 23 24 24 23 23 22 22 23 23 23 23 24 25 26 26 26 26 26 27 27 28 28 29 29 30 31 31 32
23 23 24 24 24 24 24 23 22 22 21 22 23 23 23 23 24 25 25 25 25 24 25 25 25 26 26 26 27 27 27 27 27 27 28 29 29 30 30 31 31 32 32 33
23 23 23 23 22 22 22 23 22 22 22 23 23 23 23 24 24 25 25 27 27 27 28 28 27 27 27 27 28 28 28 28 28 29 30 29 30 31 31 32 32 33 34 35
23 23 23 23 23 23 23 22 23 23 24 24 24 23 23 24 25 25 26 27 27 28 28 29 28 28 28 28 29 30 30 30 30 30 30 30 31 32 33 33 34 35 36 37

GEFSCGP_500_meanwind_132.txt.gz
Wind_Speed
12 10 8 7 8 9 12 12 13 15 16 18 19 18 19 18 16 15 15 14 13 11 10 10 11 11 13 13 13 13 12 13 13 13 13 12 10 9 8 8 7 7 7 6
11 9 8 9 11 13 13 13 13 14 16 18 17 16 17 17 15 15 14 12 10 9 8 8 8 9 11 11 10 11 10 11 12 11 11 10 10 8 6 5 4 4 4 5
11 9 10 11 12 14 14 13 14 16 15 15 15 15 16 16 17 16 13 9 8 8 7 7 7 8 9 10 9 9 9 8 8 8 8 8 7 6 5 4 3 2 2 3
12 11 13 14 14 14 14 14 15 15 14 14 13 14 15 15 15 14 12 8 7 6 6 7 7 8 9 9 8 8 8 8 8 8 7 7 7 6 5 5 3 2 2 3
13 13 15 15 15 15 15 16 15 13 14 15 13 13 14 14 13 12 10 7 5 5 5 5 6 7 8 8 8 8 8 8 8 8 7 7 6 6 6 5 3 3 3 3
16 15 15 15 15 15 15 15 13 13 15 16 13 10 13 14 13 11 7 5 4 5 5 5 6 7 7 7 7 8 8 9 8 8 7 7 6 6 5 4 3 3 3 3
16 17 17 17 17 15 15 14 13 15 15 15 11 8 11 12 12 9 7 5 3 3 4 5 6 6 6 7 7 7 8 8 8 8 8 7 6 5 4 3 3 2 2 3
16 17 18 19 19 16 15 14 14 16 14 15 11 9 8 10 10 8 6 5 4 3 3 4 5 5 5 6 6 6 7 8 8 8 8 7 6 6 5 4 2 2 2 3
16 18 18 19 19 17 15 15 13 16 14 17 13 8 9 8 7 8 7 6 4 3 3 3 4 5 5 6 6 5 7 8 9 8 8 7 7 6 5 3 2 2 2 4
21 22 22 22 19 17 16 14 14 15 16 17 17 15 10 7 7 8 7 6 5 4 4 4 5 5 5 6 5 6 6 7 7 8 8 7 7 5 5 4 3 3 3 5
23 24 24 23 20 17 19 19 18 17 16 16 19 13 8 7 7 9 8 7 6 5 5 5 5 5 7 7 6 6 7 7 7 7 7 6 6 5 5 4 4 5 5 6
26 26 27 25 22 19 20 21 20 20 17 16 16 16 10 7 8 10 9 8 7 7 6 5 6 6 7 7 7 7 7 7 7 7 7 7 6 5 5 6 7 7 8 9
28 29 28 26 25 22 20 20 19 19 20 17 15 19 16 13 11 10 9 9 9 8 8 7 6 7 8 8 8 8 8 8 8 8 8 7 7 7 7 8 8 9 10 11
29 29 29 27 26 25 22 21 21 21 21 18 17 19 18 14 13 11 9 10 10 10 10 9 8 8 8 9 9 9 9 10 10 9 9 9 9 9 9 10 11 12 13 14
31 31 31 29 28 28 25 22 22 22 20 19 18 18 19 17 14 13 11 12 12 11 11 11 10 10 9 9 10 10 10 10 10 10 11 11 11 11 12 13 13 14 15 16
30 31 31 29 28 29 27 24 20 21 21 20 18 18 20 20 17 18 15 13 13 13 12 12 12 12 11 11 11 11 12 12 12 12 12 13 13 14 14 15 16 17 18 19
27 30 31 27 26 28 26 21 18 19 19 17 18 20 21 21 20 18 15 15 14 13 14 13 13 12 12 12 13 13 13 13 14 14 14 15 15 16 17 17 18 19 20 21
26 29 30 29 27 29 22 20 20 20 20 21 24 25 23 23 21 19 17 16 16 15 14 14 14 13 13 14 14 14 14 15 16 16 17 17 17 18 19 19 20 21 22 23
26 28 30 30 29 27 24 24 23 24 23 23 25 24 23 22 21 21 20 18 17 16 16 16 16 15 15 15 16 16 16 17 17 17 18 18 19 19 20 21 22 23 23 24
26 28 30 30 30 29 25 25 26 26 25 25 26 26 24 24 22 22 22 19 17 17 17 17 17 17 17 16 17 18 18 18 18 18 19 19 20 21 22 23 24 25 25 26
23 25 28 28 29 28 27 27 27 26 26 25 25 26 25 25 23 23 21 20 19 19 19 19 18 18 18 18 19 19 19 20 20 20 20 21 22 23 23 24 25 26 26 27
24 24 25 27 28 27 27 26 27 25 25 25 23 24 24 23 22 22 21 21 21 21 20 20 20 20 20 20 20 20 21 22 22 22 22 23 24 25 25 26 26 27 28 28
21 23 24 25 25 25 24 24 24 24 24 24 24 23 23 23 23 22 22 22 22 22 22 21 22 21 21 21 21 21 21 22 23 23 24 24 25 26 27 27 27 28 29 29
23 24 25 26 26 25 25 24 23 24 24 23 24 24 23 24 23 23 23 22 22 22 22 23 23 22 22 23 22 22 23 23 25 25 26 26 28 28 28 28 28 29 30 29
24 23 24 24 24 25 25 26 25 23 22 24 24 24 23 24 24 23 23 22 22 23 23 24 24 24 24 24 24 25 25 25 26 27 28 28 29 30 29 29 30 30 30 31
22 24 24 23 23 24 23 24 24 24 25 25 25 24 24 24 23 24 24 23 23 24 24 24 25 25 26 27 26 27 28 28 27 28 28 29 30 30 31 31 32 32 32 33

GEFSCGP_500_meanwind_138.txt.gz
Wind_Speed
17 15 14 13 12 12 10 10 9 10 11 14 14 14 14 15 17 16 15 15 13 10 8 7 7 8 9 10 10 11 12 11 11 11 11 11 11 10 9 9 8 6 6 5
16 14 14 14 13 11 10 10 10 11 13 15 15 15 14 15 16 16 15 14 10 7 5 5 6 8 8 8 9 11 12 11 11 11 11 11 11 10 9 9 8 7 6 5
14 14 16 15 13 12 11 10 11 13 14 16 16 14 15 14 14 14 13 12 9 6 4 4 6 7 7 7 9 11 12 11 11 11 11 11 11 11 11 10 8 7 6 5
16 17 17 16 15 13 12 11 13 15 16 16 16 15 13 13 13 12 11 10 6 4 4 4 6 7 7 8 8 10 12 12 12 11 12 12 12 12 12 10 9 8 7 6
16 17 18 18 16 14 12 12 14 16 17 17 17 17 14 14 12 10 8 7 5 4 3 4 6 7 7 7 8 10 11 12 12 13 13 13 13 13 12 11 9 8 7 6
17 19 19 18 17 15 13 15 16 17 18 18 17 17 14 14 12 8 6 6 5 3 3 4 6 7 7 7 7 9 10 12 13 13 13 13 14 13 12 11 10 8 7 6
17 19 19 19 19 17 17 18 18 18 18 18 16 16 14 13 12 8 5 4 4 4 4 4 5 6 6 6 7 8 9 11 12 13 13 14 14 13 13 12 10 9 8 6
16 17 19 20 19 18 18 19 20 19 17 16 14 14 13 12 11 7 4 3 2 4 5 6 6 6 6 7 7 8 9 11 12 13 13 14 14 13 13 11 10 9 8 6
16 16 19 20 19 19 18 20 21 20 18 17 15 13 13 10 9 7 5 4 3 4 5 6 6 7 7 7 7 8 9 11 12 14 14 14 14 13 13 11 11 9 7 6
18 17 20 22 21 20 20 20 21 22 21 19 16 12 9 8 8 7 6 4 4 5 6 6 7 8 8 8 8 9 9 11 12 13 14 14 14 13 12 12 10 8 7 7
22 21 21 23 24 23 23 23 22 21 20 20 17 12 9 7 7 7 5 5 6 6 7 7 8 8 8 8 9 10 11 11 12 13 13 14 14 13 12 12 10 9 8 7
26 25 24 25 25 26 26 24 23 23 21 20 18 13 10 7 6 6 6 6 6 7 7 8 8 8 9 9 10 11 11 11 12 13 13 13 13 13 12 11 10 9 8 7
29 28 26 26 27 27 27 26 25 24 23 21 19 15 12 9 8 7 6 7 7 7 8 8 8 8 9 9 9 11 12 12 12 13 13 13 13 12 11 11 10 10 9 8
30 30 29 28 27 28 29 28 27 26 25 23 19 18 16 13 11 10 10 9 8 7 9 9 9 9 9 9 9 11 11 12 12 13 13 14 13 12 11 11 11 10 10 9
31 32 32 31 30 30 29 29 28 27 26 24 20 20 19 16 14 11 10 10 9 8 10 10 10 10 10 10 10 11 11 12 12 13 14 14 13 12 12 12 11 11 11 11
31 32 32 32 33 33 31 28 27 28 26 24 22 21 21 19 15 11 9 10 9 9 11 11 10 11 11 11 11 12 12 12 13 13 14 14 14 14 13 13 13 13 13 14
29 30 31 31 32 33 29 27 28 29 28 26 24 23 22 20 16 13 10 10 10 10 11 11 11 11 11 11 12 12 13 13 13 14 14 14 14 15 15 15 15 16 16 17
26 27 28 28 28 31 27 26 27 28 27 27 26 25 24 20 18 17 14 12 11 10 12 13 13 13 13 13 13 13 13 13 14 14 15 15 16 16 16 17 17 18 19 19
24 24 25 27 28 28 24 24 24 26 26 27 27 25 24 22 21 19 17 14 13 12 13 14 15 14 14 14 15 15 15 15 15 16 16 17 18 18 19 19 19 20 21 21
22 22 23 24 24 23 23 23 25 25 26 26 25 24 25 23 22 19 17 15 15 14 14 15 16 17 16 16 16 16 16 17 17 18 18 18 19 20 20 21 21 22 22 23
22 22 22 22 23 22 22 23 25 26 24 24 24 24 24 24 22 22 19 17 16 16 16 17 17 17 17 17 18 17 17 17 18 18 19 19 20 21 22 22 23 24 24 24
21 21 21 22 23 22 21 22 23 24 25 25 24 23 23 24 21 22 21 19 17 16 16 17 18 18 17 17 18 18 18 19 20 20 20 21 22 23 23 24 24 25 25 25
20 19 19 21 22 21 22 22 22 22 23 24 26 27 24 24 23 21 20 19 19 18 17 17 17 18 18 18 19 19 20 21 21 21 22 23 24 25 25 26 26 27 27 27
20 19 18 17 17 19 20 21 20 21 22 23 23 24 24 23 22 20 18 17 17 18 18 18 19 20 19 19 19 20 22 22 22 23 23 24 25 26 27 27 28 28 29 29
18 18 17 16 16 17 17 19 21 21 21 21 22 22 23 23 22 21 20 19 18 18 18 19 20 20 20 21 21 21 22 23 24 24 25 25 26 28 29 29 30 30 31 31
18 18 17 17 16 15 14 15 17 18 19 19 19 21 22 21 21 21 21 20 19 20 20 20 20 20 21 22 23 23 24 25 25 26 26 27 28 28 29 30 30 30 31 32

GEFSCGP_500_meanwind_144.txt.gz
Wind_Speed
21 20 19 19 19 18 19 18 17 17 18 16 15 14 14 14 14 15 15 14 14 13 12 9 9 10 10 11 13 15 17 18 18 17 16 16 15 14 14 13 12 11 10 8
21 19 19 20 19 19 19 18 16 16 17 16 15 14 15 15 15 15 14 14 13 12 11 8 8 9 11 11 12 14 15 17 18 18 17 16 15 15 13 13 12 11 10 8
19 19 20 21 20 19 19 17 16 16 17 16 15 13 13 14 14 13 13 13 13 12 8 7 8 9 10 11 13 14 15 16 18 17 17 17 16 14 13 12 12 11 10 9
20 21 21 22 21 20 19 18 17 17 18 16 15 12 11 13 13 13 13 13 13 11 8 7 8 9 9 10 11 12 15 15 16 16 17 17 15 15 13 13 11 11 11 10
20 21 22 22 21 20 18 19 19 19 19 16 15 15 12 13 13 14 14 13 13 11 8 6 7 8 8 9 10 12 14 15 16 16 17 17 16 16 15 14 12 12 11 10
21 22 22 21 21 21 20 21 20 19 19 16 15 15 12 13 14 13 13 13 13 11 8 7 7 8 9 10 11 12 13 14 15 16 17 16 16 17 16 14 13 13 12 11
21 22 21 21 22 22 22 21 21 20 19 16 15 15 13 13 13 12 12 12 11 10 8 8 8 9 10 10 11 13 13 14 16 16 16 16 17 17 16 15 14 14 13 11
20 20 21 21 21 21 22 22 22 21 18 16 15 15 13 12 11 11 11 11 10 9 8 9 10 10 10 10 11 12 13 14 15 16 16 17 18 18 17 16 15 15 13 11
18 19 20 21 22 23 23 23 22 22 20 18 16 13 12 10 11 10 10 10 10 9 8 9 10 10 10 10 11 12 13 14 15 17 17 18 18 18 18 17 16 15 14 12
18 18 20 21 23 24 24 24 23 22 21 19 16 13 13 11 10 10 10 9 8 9 8 9 10 10 9 10 10 11 12 13 15 17 18 18 18 18 18 17 16 15 14 13
19 19 20 21 23 24 25 25 24 24 22 20 17 13 12 11 11 11 10 10 10 9 10 11 11 11 10 10 10 11 12 13 15 17 18 18 18 18 18 17 16 16 15 14
19 20 21 22 23 25 26 26 25 25 23 21 18 12 12 11 12 12 11 10 10 10 10 11 12 12 11 11 11 11 12 13 15 17 18 18 18 18 17 16 16 15 14 13
22 22 22 23 24 25 26 27 27 26 25 23 19 14 13 13 13 12 12 11 11 10 10 11 11 12 13 12 12 13 13 13 16 17 17 18 18 18 17 17 16 15 14 14
24 24 24 24 25 25 26 26 27 27 25 23 20 16 15 15 14 14 13 13 12 11 11 11 12 12 13 14 14 13 14 15 16 18 18 18 18 18 17 17 16 15 14 13
26 25 25 25 25 26 27 27 28 27 26 24 21 18 16 16 15 14 14 14 13 13 12 12 13 13 13 14 14 14 13 15 15 18 18 19 19 18 18 17 17 15 15 14
27 27 27 26 26 27 28 28 28 28 27 24 22 18 18 17 17 16 15 15 14 14 13 13 14 14 14 14 14 14 14 15 16 17 18 18 18 18 18 18 17 16 16 16
28 28 27 27 27 28 28 27 28 29 28 26 23 20 20 18 18 18 18 18 17 17 16 16 15 15 15 15 15 15 16 16 17 18 18 18 18 19 19 19 18 18 18 18
28 28 28 28 28 29 26 27 27 27 27 26 23 21 21 20 20 20 19 19 19 19 19 18 17 17 17 17 17 17 17 17 17 19 20 20 20 20 20 20 20 20 20 20
27 27 27 27 27 26 24 24 25 25 25 24 22 21 21 21 21 21 20 20 20 20 20 19 19 20 20 19 19 19 18 18 18 19 20 21 21 21 22 22 22 22 22 22
24 23 23 23 24 23 22 23 24 24 23 23 22 21 21 22 22 22 22 21 21 21 20 20 21 21 21 21 21 20 19 19 20 20 21 21 22 23 23 23 23 23 23 24
21 21 21 21 21 21 21 20 21 22 21 22 22 21 22 22 23 23 23 23 23 22 21 21 22 23 23 23 23 22 21 21 21 22 22 22 22 23 23 24 24 24 25 25
20 20 20 20 20 19 19 19 20 20 20 21 21 21 21 22 23 24 23 24 24 24 23 24 24 24 24 25 24 23 23 23 24 23 24 24 24 24 25 25 26 27 27 27
20 20 18 18 18 18 18 19 20 20 20 20 21 21 21 21 23 24 24 25 25 25 24 24 24 25 25 25 25 25 24 25 25 25 25 25 26 27 27 27 27 28 29 29
19 18 18 17 17 17 18 18 19 19 20 20 21 21 21 22 23 24 26 26 25 25 25 24 25 26 25 25 26 26 26 27 27 26 26 26 26 27 28 28 29 30 30 31
19 18 18 17 17 17 18 18 17 18 19 20 20 21 22 23 23 24 25 25 25 25 25 24 24 24 25 26 26 26 26 27 28 28 28 28 28 29 30 30 31 31 32 33
19 19 17 17 17 17 17 17 17 17 18 19 19 20 21 22 22 23 25 26 26 26 25 25 26 25 26 27 27 28 28 28 28 29 29 30 30 31 31 31 32 33 34 35

GEFSCGP_500_meanwind_150.txt.gz
Wind_Speed
20 19 18 18 18 19 18 17 16 17 16 15 15 15 15 15 14 14 14 13 13 13 13 13 12 12 15 17 18 19 20 21 21 22 21 20 19 19 18 17 16 14 12 10
20 19 19 20 19 19 18 17 16 17 17 16 15 15 15 15 14 14 14 13 12 13 13 13 12 13 14 16 18 19 19 21 22 21 20 20 19 19 19 18 17 15 13 11
20 20 21 21 20 19 17 16 16 16 16 15 14 13 14 15 15 14 13 13 13 13 13 12 11 12 14 16 17 17 19 21 22 22 21 21 20 19 19 18 16 15 14 12
23 23 22 21 20 18 17 17 16 16 15 14 13 11 14 14 13 13 12 12 12 12 11 10 10 9 12 13 15 16 17 19 21 21 21 21 20 19 18 18 17 15 14 12
23 23 22 21 19 18 18 18 17 16 15 14 14 12 12 14 12 12 11 11 10 10 9 9 9 9 11 13 13 15 16 17 20 20 20 21 21 20 18 18 17 15 14 13
24 23 22 21 21 19 19 18 17 16 15 14 14 12 11 12 11 11 11 11 11 10 9 9 9 10 11 12 13 14 15 17 18 19 20 20 21 20 19 18 17 15 14 13
24 23 23 22 21 20 19 18 16 15 14 13 14 12 11 12 11 11 12 12 11 10 10 9 9 9 12 12 13 14 14 16 17 18 18 19 21 20 19 18 17 15 15 14
22 22 22 22 21 20 19 18 17 15 14 13 14 13 12 12 11 11 12 11 10 9 9 8 9 10 10 12 12 13 15 16 17 18 18 19 20 20 19 18 17 16 15 15
22 21 22 22 21 21 20 20 18 17 15 13 13 13 12 11 11 12 11 11 10 9 8 8 9 10 11 11 11 12 14 15 17 18 18 18 19 19 20 19 18 17 16 15
22 22 22 21 21 21 21 20 20 18 15 14 12 12 11 11 11 11 11 11 10 9 8 8 9 10 10 11 11 11 12 12 14 16 17 18 19 20 20 19 19 18 17 15
22 21 21 21 21 21 21 21 20 19 18 14 12 11 12 11 11 11 11 11 10 9 8 7 8 9 10 10 10 10 11 12 14 15 15 17 19 20 20 19 18 18 17 16
23 22 21 22 22 21 21 20 20 20 19 16 13 13 15 12 12 11 11 11 11 10 10 9 9 9 10 10 10 10 11 12 13 15 15 16 18 19 19 19 19 19 18 17
22 22 22 21 21 21 21 21 21 20 19 18 15 14 17 15 14 13 12 11 11 11 11 10 10 10 11 11 11 12 12 12 13 13 15 15 17 18 19 19 19 19 18 17
23 22 21 20 20 22 21 21 21 21 20 19 17 17 18 18 16 15 13 12 12 12 11 11 11 11 11 12 12 13 13 13 13 13 15 16 17 18 19 19 19 19 19 18
23 22 22 23 23 23 22 22 22 23 22 20 18 19 20 20 18 17 15 13 13 13 12 12 12 12 12 12 13 13 14 14 14 14 15 17 17 19 19 20 20 20 19 19
23 23 22 22 23 24 23 23 23 24 23 21 20 21 22 21 20 18 16 15 15 14 13 13 13 13 13 13 13 15 15 15 15 15 16 17 18 19 20 21 21 21 20 20
25 24 23 23 23 23 23 23 23 24 23 22 22 22 22 22 21 20 18 18 17 16 15 15 15 14 14 14 14 15 16 15 16 16 17 18 19 20 21 21 21 22 22 21
25 25 24 24 24 24 24 24 24 24 24 24 24 23 23 24 23 22 21 20 19 18 17 16 16 16 15 15 16 16 16 16 16 16 17 19 19 20 21 22 22 23 23 23
27 25 23 23 23 24 24 23 23 24 25 25 24 24 24 24 24 24 23 21 20 20 19 18 18 17 17 16 17 17 17 17 17 17 18 19 20 20 21 23 24 24 24 24
25 24 23 23 22 22 23 22 22 23 25 24 24 24 24 25 25 25 25 23 22 21 20 20 18 18 18 18 18 18 18 18 18 19 19 20 21 21 21 22 23 24 24 25
25 24 23 22 21 23 23 21 21 22 23 22 23 23 23 25 25 25 25 25 23 22 21 21 20 20 20 19 19 19 20 20 20 21 21 21 21 22 23 24 24 25 25 26
24 24 23 22 22 23 21 20 21 21 21 21 22 23 23 24 24 24 25 24 23 23 23 23 22 22 22 21 20 20 21 22 22 22 22 22 22 23 24 25 26 26 27 28
24 23 22 22 23 22 20 21 20 20 21 21 21 22 23 23 24 24 25 24 24 24 24 25 24 23 23 22 21 21 22 23 23 23 24 24 24 25 25 26 27 27 27 27
24 22 22 22 22 21 20 20 20 20 19 20 20 21 22 23 23 24 25 25 25 25 25 26 25 25 24 24 23 23 24 25 26 25 26 26 26 27 27 27 27 27 28 29
24 23 22 22 21 20 20 20 20 20 20 19 21 21 22 22 23 23 24 25 26 26 25 25 26 26 26 26 25 25 25 26 27 27 26 27 28 27 28 29 29 29 30 30
23 22 21 22 21 20 20 20 20 20 20 21 20 21 21 22 22 23 24 25 25 25 25 25 25 26 26 27 26 26 26 26 27 27 28 28 29 29 29 30 30 30 31 32